TimeCDT,TemperatureF,Dew PointF,Humidity,Sea Level PressureIn,VisibilityMPH,Wind Direction,Wind SpeedMPH,Gust SpeedMPH,PrecipitationIn,Events,Conditions,WindDirDegrees,DateUTC
12:13 AM,42.8,28.4,57,30.29,10.0,Calm,Calm,-,N/A,,Clear,0,2013-05-26 05:13:00
12:33 AM,39.2,33.8,81,30.29,10.0,Calm,Calm,-,N/A,,Clear,0,2013-05-26 05:33:00
12:51 AM,37.4,32.0,81,30.29,10.0,Calm,Calm,-,N/A,,Clear,0,2013-05-26 05:51:00
1:13 AM,37.4,32.0,81,30.29,10.0,Calm,Calm,-,N/A,,Clear,0,2013-05-26 06:13:00
1:33 AM,37.4,32.0,81,30.30,10.0,Calm,Calm,-,N/A,,Clear,0,2013-05-26 06:33:00
1:53 AM,37.4,32.0,81,30.30,10.0,Calm,Calm,-,N/A,,Clear,0,2013-05-26 06:53:00
2:12 AM,35.6,33.8,93,30.29,10.0,Calm,Calm,-,N/A,,Clear,0,2013-05-26 07:12:00
2:33 AM,35.6,30.2,81,30.29,10.0,Calm,Calm,-,N/A,,Clear,0,2013-05-26 07:33:00
2:53 AM,35.6,32.0,87,30.29,10.0,Calm,Calm,-,N/A,,Clear,0,2013-05-26 07:53:00
3:12 AM,35.6,32.0,87,30.29,10.0,Calm,Calm,-,N/A,,Clear,0,2013-05-26 08:12:00
3:33 AM,35.6,32.0,87,30.28,10.0,Calm,Calm,-,N/A,,Clear,0,2013-05-26 08:33:00
3:53 AM,33.8,30.2,87,30.28,10.0,Calm,Calm,-,N/A,,Clear,0,2013-05-26 08:53:00
4:12 AM,33.8,32.0,93,30.27,10.0,Calm,Calm,-,N/A,,Clear,0,2013-05-26 09:12:00
4:33 AM,33.8,32.0,93,30.26,10.0,Calm,Calm,-,N/A,,Clear,0,2013-05-26 09:33:00
4:53 AM,33.8,32.0,93,30.26,10.0,Calm,Calm,-,N/A,,Clear,0,2013-05-26 09:53:00
5:12 AM,35.6,30.2,81,30.27,10.0,Calm,Calm,-,N/A,,Clear,0,2013-05-26 10:12:00
5:33 AM,33.8,30.2,87,30.29,10.0,Calm,Calm,-,N/A,,Clear,0,2013-05-26 10:33:00
5:53 AM,35.6,30.2,81,30.30,10.0,Calm,Calm,-,N/A,,Clear,0,2013-05-26 10:53:00
6:13 AM,35.6,32.0,87,30.32,10.0,Calm,Calm,-,N/A,,Clear,0,2013-05-26 11:13:00
6:33 AM,37.4,33.8,87,30.31,10.0,Calm,Calm,-,N/A,,Clear,0,2013-05-26 11:33:00
6:53 AM,42.8,33.8,70,30.30,10.0,Calm,Calm,-,N/A,,Clear,0,2013-05-26 11:53:00
7:13 AM,46.4,28.4,50,30.29,10.0,SE,6.9,-,N/A,,Clear,130,2013-05-26 12:13:00
7:33 AM,48.2,28.4,46,30.28,10.0,ESE,5.8,-,N/A,,Clear,110,2013-05-26 12:33:00
7:53 AM,50.0,28.4,43,30.28,10.0,ESE,3.5,-,N/A,,Clear,120,2013-05-26 12:53:00
8:12 AM,51.8,28.4,41,30.29,10.0,SE,4.6,-,N/A,,Clear,140,2013-05-26 13:12:00
8:33 AM,53.6,28.4,38,30.30,10.0,SSE,4.6,-,N/A,,Clear,150,2013-05-26 13:33:00
8:53 AM,55.4,30.2,38,30.30,10.0,Calm,Calm,-,N/A,,Clear,0,2013-05-26 13:53:00
9:12 AM,55.4,30.2,38,30.29,10.0,ESE,5.8,-,N/A,,Clear,120,2013-05-26 14:12:00
9:33 AM,57.2,32.0,38,30.28,10.0,ESE,3.5,-,N/A,,Clear,110,2013-05-26 14:33:00
9:53 AM,60.8,32.0,34,30.27,10.0,ESE,3.5,-,N/A,,Clear,120,2013-05-26 14:53:00
10:12 AM,60.8,33.8,36,30.27,10.0,SE,4.6,-,N/A,,Clear,130,2013-05-26 15:12:00
10:33 AM,62.6,33.8,34,30.26,10.0,ESE,9.2,-,N/A,,Clear,120,2013-05-26 15:33:00
10:53 AM,62.6,33.8,34,30.26,10.0,SE,4.6,-,N/A,,Clear,140,2013-05-26 15:53:00
11:12 AM,64.4,35.6,34,30.25,10.0,South,9.2,-,N/A,,Clear,190,2013-05-26 16:12:00
11:33 AM,64.4,35.6,34,30.25,10.0,South,10.4,17.3,N/A,,Clear,180,2013-05-26 16:33:00
11:53 AM,66.2,35.6,32,30.25,10.0,SSW,5.8,-,N/A,,Clear,200,2013-05-26 16:53:00
12:12 PM,66.2,35.6,32,30.24,10.0,South,11.5,-,N/A,,Clear,170,2013-05-26 17:12:00
12:33 PM,66.2,35.6,32,30.24,10.0,South,11.5,18.4,N/A,,Clear,170,2013-05-26 17:33:00
12:53 PM,66.2,35.6,32,30.24,10.0,SSE,12.7,-,N/A,,Clear,160,2013-05-26 17:53:00
1:12 PM,66.2,35.6,32,30.22,10.0,SSE,11.5,16.1,N/A,,Clear,150,2013-05-26 18:12:00
1:33 PM,66.2,33.8,30,30.22,10.0,South,6.9,19.6,N/A,,Clear,180,2013-05-26 18:33:00
1:53 PM,66.2,33.8,30,30.22,10.0,South,11.5,17.3,N/A,,Clear,180,2013-05-26 18:53:00
2:13 PM,66.2,33.8,30,30.22,10.0,South,12.7,18.4,N/A,,Clear,180,2013-05-26 19:13:00
2:33 PM,66.2,33.8,30,30.21,10.0,SE,15.0,-,N/A,,Clear,130,2013-05-26 19:33:00
2:52 PM,66.2,33.8,30,30.21,10.0,SSE,12.7,-,N/A,,Clear,160,2013-05-26 19:52:00
3:13 PM,66.2,33.8,30,30.20,10.0,SSE,11.5,20.7,N/A,,Clear,150,2013-05-26 20:13:00
3:33 PM,64.4,33.8,32,30.20,10.0,SE,16.1,-,N/A,,Clear,130,2013-05-26 20:33:00
3:52 PM,66.2,33.8,30,30.20,10.0,SE,10.4,17.3,N/A,,Clear,140,2013-05-26 20:52:00
4:13 PM,66.2,32.0,28,30.19,10.0,SE,5.8,10.4,N/A,,Clear,140,2013-05-26 21:13:00
4:32 PM,66.2,30.2,26,30.18,10.0,SSE,10.4,17.3,N/A,,Clear,150,2013-05-26 21:32:00
4:53 PM,66.2,30.2,26,30.18,10.0,SSE,12.7,-,N/A,,Clear,150,2013-05-26 21:53:00
5:13 PM,66.2,32.0,28,30.17,10.0,ESE,12.7,-,N/A,,Clear,120,2013-05-26 22:13:00
5:32 PM,66.2,32.0,28,30.17,10.0,SE,12.7,18.4,N/A,,Clear,130,2013-05-26 22:32:00
5:53 PM,66.2,32.0,28,30.17,10.0,SE,11.5,18.4,N/A,,Clear,140,2013-05-26 22:53:00
6:13 PM,64.4,30.2,28,30.16,10.0,SE,10.4,-,N/A,,Clear,140,2013-05-26 23:13:00
6:32 PM,64.4,32.0,30,30.17,10.0,SSE,9.2,-,N/A,,Clear,160,2013-05-26 23:32:00
6:53 PM,62.6,32.0,32,30.16,10.0,SE,10.4,-,N/A,,Clear,130,2013-05-26 23:53:00
7:13 PM,62.6,32.0,32,30.16,10.0,SE,11.5,-,N/A,,Clear,130,2013-05-27 00:13:00
7:32 PM,60.8,33.8,36,30.17,10.0,SE,10.4,-,N/A,,Clear,130,2013-05-27 00:32:00
7:53 PM,60.8,33.8,36,30.17,10.0,SE,5.8,-,N/A,,Clear,130,2013-05-27 00:53:00
8:13 PM,57.2,33.8,41,30.17,10.0,SE,8.1,-,N/A,,Clear,130,2013-05-27 01:13:00
8:32 PM,57.2,33.8,41,30.18,10.0,SE,8.1,-,N/A,,Clear,140,2013-05-27 01:32:00
8:53 PM,55.4,32.0,41,30.18,10.0,ESE,8.1,-,N/A,,Clear,120,2013-05-27 01:53:00
9:13 PM,55.4,28.4,36,30.19,10.0,SE,11.5,-,N/A,,Clear,130,2013-05-27 02:13:00
9:32 PM,53.6,26.6,35,30.19,10.0,SE,9.2,-,N/A,,Clear,130,2013-05-27 02:32:00
9:53 PM,51.8,26.6,38,30.19,10.0,SE,8.1,-,N/A,,Clear,130,2013-05-27 02:53:00
10:12 PM,51.8,26.6,38,30.19,10.0,SE,5.8,-,N/A,,Clear,130,2013-05-27 03:12:00
10:33 PM,51.8,24.8,35,30.19,10.0,Calm,Calm,-,N/A,,Clear,0,2013-05-27 03:33:00
10:53 PM,50.0,26.6,40,30.18,10.0,Calm,Calm,-,N/A,,Clear,0,2013-05-27 03:53:00
11:12 PM,46.4,28.4,50,30.17,10.0,Calm,Calm,-,N/A,,Clear,0,2013-05-27 04:12:00
11:33 PM,44.6,28.4,53,30.16,10.0,Calm,Calm,-,N/A,,Clear,0,2013-05-27 04:33:00
11:53 PM,42.8,30.2,61,30.16,10.0,Calm,Calm,-,N/A,,Clear,0,2013-05-27 04:53:00